Weather History for Jackson, WY

Change the Weather History Date:

Thursday, January 31, 2013

  Actual Average Record
Temperature  
Mean Temperature 30 °F -  
Max Temperature 33 °F 25 °F 45 °F (1960)
Min Temperature 28 °F -1 °F -40 °F (1985)
Degree Days  
Heating Degree Days 34    
Moisture  
Dew Point 24 °F    
Average Humidity 78    
Maximum Humidity 100    
Minimum Humidity 64    
Precipitation  
Precipitation 0.01 in - - ()
Sea Level Pressure  
Sea Level Pressure 30.12 in    
Wind  
Wind Speed 10 mph (SSW)    
Max Wind Speed 20 mph    
Max Gust Speed 25 mph    
Visibility 8 miles    
Events      
Averages and records for this station are not official NWS values.
T = Trace of Precipitation, MM = Missing Value Source: NWS Daily Summary

Daily Weather History Graph

Daily Weather History Graph

Search for Another Location

Airport:

Trip Planner

Search our weather history database for the weather conditions in past years. The results will help you decide how hot, cold, wet, or windy it might be!

Date:

Astronomy

Jan. 31, 2013 Rise Set
Actual Time 7:40 AM MST 5:33 PM MST
Civil Twilight 7:09 AM MST 6:03 PM MST
Nautical Twilight 6:35 AM MST 6:38 PM MST
Astronomical Twilight 6:01 AM MST 7:11 PM MST
Moon 10:51 PM MST (1/31) 9:30 AM MST (1/31)
Length of Visible Light 10h 54m
Length of Day
9h 53m
Waning Gibbous, 79% of the Moon is Illuminated
Jan 31
Waning Gibbous
Feb 3
Last Quarter
Feb 10
New
Feb 17
First Quarter
Feb 25
Full

Hourly Weather History & Observations

Time (MST) Temp. Windchill Dew Point Humidity Pressure Visibility Wind Dir Wind Speed Gust Speed Precip Events Conditions
12:15 AM 32.0 °F 22.5 °F 21.2 °F 64% 30.02 in 10.0 mi NW 12.7 mph 21.9 mph N/A   Overcast
12:35 AM 30.2 °F - 23.0 °F 75% 30.04 in 6.0 mi Calm Calm - N/A   Overcast
12:55 AM 30.2 °F 26.7 °F 23.0 °F 75% 30.04 in 7.0 mi NNW 3.5 mph - N/A   Overcast
1:15 AM 30.2 °F 26.7 °F 23.0 °F 75% 30.04 in 8.0 mi ENE 3.5 mph - N/A   Overcast
1:35 AM 30.2 °F 24.3 °F 21.2 °F 69% 30.04 in 10.0 mi NW 5.8 mph - N/A   Overcast
2:15 AM 30.2 °F 20.8 °F 21.2 °F 69% 30.05 in 10.0 mi WNW 11.5 mph 19.6 mph N/A   Mostly Cloudy
2:35 AM 30.2 °F 23.4 °F 21.2 °F 69% 30.06 in 10.0 mi WSW 6.9 mph 16.1 mph N/A   Overcast
2:55 AM 30.2 °F 25.4 °F 21.2 °F 69% 30.07 in 10.0 mi NNE 4.6 mph - N/A   Overcast
3:15 AM 30.2 °F 22.6 °F 21.2 °F 69% 30.07 in 10.0 mi ESE 8.1 mph - N/A   Overcast
3:35 AM 30.2 °F 20.8 °F 21.2 °F 69% 30.08 in 10.0 mi SSW 11.5 mph 17.3 mph N/A   Overcast
3:55 AM 30.2 °F 19.8 °F 21.2 °F 69% 30.08 in 9.0 mi SSW 13.8 mph 18.4 mph N/A   Overcast
4:35 AM 30.2 °F 19.3 °F 21.2 °F 69% 30.09 in 10.0 mi SSW 15.0 mph 23.0 mph N/A   Overcast
4:55 AM 30.2 °F 20.8 °F 21.2 °F 69% 30.10 in 10.0 mi SSW 11.5 mph 21.9 mph N/A   Overcast
5:15 AM 30.2 °F 21.3 °F 21.2 °F 69% 30.11 in 9.0 mi South 10.4 mph 21.9 mph N/A   Overcast
5:35 AM 30.2 °F 20.2 °F 21.2 °F 69% 30.12 in 10.0 mi SSW 12.7 mph 20.7 mph N/A   Overcast
5:55 AM 30.2 °F 22.6 °F 21.2 °F 69% 30.12 in 10.0 mi SSW 8.1 mph 20.7 mph N/A   Overcast
6:15 AM 30.2 °F 21.3 °F 21.2 °F 69% 30.12 in 10.0 mi SW 10.4 mph 17.3 mph N/A   Overcast
6:35 AM 30.2 °F 23.4 °F 21.2 °F 69% 30.13 in 10.0 mi SSW 6.9 mph - N/A   Overcast
6:53 AM 28.4 °F 18.5 °F 21.2 °F 74% 30.13 in 10.0 mi South 11.5 mph 19.6 mph N/A   Mostly Cloudy
7:53 AM 30.2 °F 21.3 °F 21.2 °F 69% 30.15 in 10.0 mi SSW 10.4 mph - N/A   Overcast
8:51 AM 28.4 °F 16.2 °F 23.0 °F 80% 30.17 in 10.0 mi South 17.3 mph 23.0 mph N/A   Overcast
9:51 AM 28.4 °F 17.0 °F 24.8 °F 86% 30.19 in 10.0 mi South 15.0 mph - N/A   Overcast
10:51 AM 30.2 °F 18.5 °F 24.8 °F 80% 30.20 in 10.0 mi South 17.3 mph - N/A   Overcast
11:51 AM 30.2 °F 17.8 °F 24.8 °F 80% 30.18 in 10.0 mi South 19.6 mph - N/A   Overcast
12:51 PM 32.0 °F 21.2 °F 24.8 °F 75% 30.17 in 10.0 mi South 16.1 mph - N/A   Overcast
1:55 PM 33.8 °F 22.8 °F 23.0 °F 65% 30.17 in 10.0 mi South 18.4 mph 25.3 mph N/A   Overcast
2:51 PM 32.0 °F 23.0 °F 24.8 °F 75% 30.17 in 7.0 mi South 11.5 mph 17.3 mph N/A   Overcast
3:59 PM 30.2 °F 19.3 °F 26.6 °F 86% 30.17 in 9.0 mi South 15.0 mph - N/A   Overcast
4:56 PM 30.2 °F 21.3 °F 24.8 °F 80% 30.18 in 7.0 mi South 10.4 mph - N/A   Overcast
5:58 PM 28.4 °F 19.7 °F 24.8 °F 86% 30.17 in 8.0 mi South 9.2 mph - N/A   Mostly Cloudy
6:53 PM 30.2 °F 19.8 °F 24.8 °F 80% 30.16 in 10.0 mi South 13.8 mph - N/A   Mostly Cloudy
7:55 PM 30.2 °F 19.8 °F 26.6 °F 86% 30.17 in 10.0 mi South 13.8 mph - N/A   Mostly Cloudy
8:55 PM 28.4 °F 17.0 °F 26.6 °F 93% 30.16 in 10.0 mi South 15.0 mph - N/A   Mostly Cloudy
9:35 PM 28.4 °F 19.1 °F 26.6 °F 93% 30.16 in 10.0 mi South 10.4 mph - N/A   Overcast
9:55 PM 28.4 °F 23.3 °F 26.6 °F 93% 30.16 in 3.0 mi SSW 4.6 mph - N/A   Overcast
10:15 PM 28.4 °F 21.2 °F 26.6 °F 93% 30.15 in 5.0 mi South 6.9 mph - N/A   Overcast
10:35 PM 28.4 °F 18.5 °F 28.4 °F 100% 30.15 in 4.0 mi South 11.5 mph - N/A   Overcast
10:55 PM 28.4 °F 17.5 °F 28.4 °F 100% 30.13 in 2.5 mi South 13.8 mph - N/A   Overcast
11:35 PM 30.2 °F 21.9 °F 28.4 °F 93% 30.12 in 3.0 mi SSW 9.2 mph - 0.01 in   Overcast
11:55 PM 30.2 °F 21.9 °F 28.4 °F 93% 30.13 in 2.5 mi SSW 9.2 mph - 0.01 in   Overcast